{"data":{"norad_id":54754,"epoch":"2026-05-25T04:39:51.748416Z","epoch_age_seconds":48352,"freshness":"FRESH","line1":"1 54754U 22173A   26145.19434894  .00000030  00000+0  21949-4 0  9991","line2":"2 54754  77.6111  66.3476 0000113  99.2905 260.8260 14.00171690175939","mean_motion":14.0017169,"eccentricity":1.13e-5,"inclination_deg":77.6111,"raan_deg":66.3476,"arg_perigee_deg":99.2905,"mean_anomaly_deg":260.826,"bstar":2.1949e-5,"rev_number":17593,"period_min":102.84453044469,"perigee_km":893.11850292746,"apogee_km":893.28283515878,"semimajor_km":7271.3376690431,"source":"CELESTRAK","updated_at":"2026-05-25T13:38:12.835358Z"}}